Time,TemperatureF,DewpointF,PressureIn,WindDirection,WindDirectionDegrees,WindSpeedMPH,WindSpeedGustMPH,Humidity,HourlyPrecipIn,Conditions,Clouds,dailyrainin,SoftwareType,DateUTC
2013-09-05 00:01:00,51.2,42.9,30.13,NE,34,1.0,1.0,73,0.00,,CLR,0.00,VWS V14.01,2013-09-05 04:01:00,
2013-09-05 00:02:00,51.2,42.9,30.13,NE,34,1.0,1.0,73,0.00,,CLR,0.00,VWS V14.01,2013-09-05 04:02:00,
2013-09-05 00:03:00,51.2,42.9,30.13,NE,34,1.0,1.0,73,0.00,,CLR,0.00,VWS V14.01,2013-09-05 04:03:00,
2013-09-05 00:08:00,51.0,43.0,30.13,NE,42,1.0,1.0,74,0.00,,CLR,0.00,VWS V14.01,2013-09-05 04:08:00,
2013-09-05 00:13:00,50.8,42.8,30.13,NE,49,2.0,2.0,74,0.00,,CLR,0.00,VWS V14.01,2013-09-05 04:13:00,
2013-09-05 00:18:00,50.6,42.6,30.13,NNE,24,1.0,2.0,74,0.00,,CLR,0.00,VWS V14.01,2013-09-05 04:18:00,
2013-09-05 00:23:00,50.1,42.8,30.14,ENE,64,4.0,4.0,76,0.00,,CLR,0.00,VWS V14.01,2013-09-05 04:23:00,
2013-09-05 00:28:00,49.9,43.0,30.13,ENE,61,3.0,3.0,77,0.00,,CLR,0.00,VWS V14.01,2013-09-05 04:28:00,
2013-09-05 00:33:00,49.8,43.6,30.13,NE,41,7.0,9.0,79,0.00,,CLR,0.00,VWS V14.01,2013-09-05 04:33:00,
2013-09-05 00:38:00,50.2,44.0,30.13,NNE,30,3.0,4.0,79,0.00,,CLR,0.00,VWS V14.01,2013-09-05 04:38:00,
2013-09-05 00:44:00,50.3,44.0,30.14,NNE,13,5.0,5.0,79,0.00,,CLR,0.00,VWS V14.01,2013-09-05 04:44:00,
2013-09-05 00:49:00,50.5,44.2,30.14,NNE,23,3.0,3.0,79,0.00,,CLR,0.00,VWS V14.01,2013-09-05 04:49:00,
2013-09-05 00:54:00,50.8,44.5,30.14,NNE,26,1.0,2.0,79,0.00,,CLR,0.00,VWS V14.01,2013-09-05 04:54:00,
2013-09-05 00:59:00,50.9,44.6,30.14,NNE,12,3.0,4.0,79,0.00,,CLR,0.00,VWS V14.01,2013-09-05 04:59:00,
2013-09-05 01:04:00,51.0,44.7,30.14,NNE,31,3.0,3.0,79,0.00,,CLR,0.00,VWS V14.01,2013-09-05 05:04:00,
2013-09-05 01:09:00,51.1,44.8,30.15,NNE,31,3.0,4.0,79,0.00,,CLR,0.00,VWS V14.01,2013-09-05 05:09:00,
2013-09-05 01:14:00,51.1,44.8,30.15,NE,38,5.0,5.0,79,0.00,,CLR,0.00,VWS V14.01,2013-09-05 05:14:00,
2013-09-05 01:19:00,51.1,44.8,30.15,NNE,31,2.0,5.0,79,0.00,,CLR,0.00,VWS V14.01,2013-09-05 05:19:00,
2013-09-05 01:24:00,51.1,45.2,30.15,North,7,3.0,5.0,80,0.00,,CLR,0.00,VWS V14.01,2013-09-05 05:24:00,
2013-09-05 01:29:00,51.1,45.5,30.15,NNE,13,3.0,6.0,81,0.00,,CLR,0.00,VWS V14.01,2013-09-05 05:29:00,
2013-09-05 01:34:00,51.2,45.6,30.15,NNE,21,2.0,4.0,81,0.00,,CLR,0.00,VWS V14.01,2013-09-05 05:34:00,
2013-09-05 01:39:00,51.1,45.5,30.15,NNW,344,1.0,2.0,81,0.00,,CLR,0.00,VWS V14.01,2013-09-05 05:39:00,
2013-09-05 01:44:00,51.0,45.7,30.15,NNW,348,2.0,2.0,82,0.00,,CLR,0.00,VWS V14.01,2013-09-05 05:44:00,
2013-09-05 01:49:00,51.0,45.7,30.15,North,352,2.0,2.0,82,0.00,,CLR,0.00,VWS V14.01,2013-09-05 05:49:00,
2013-09-05 01:54:00,50.9,45.9,30.15,North,357,1.0,2.0,83,0.00,,CLR,0.00,VWS V14.01,2013-09-05 05:54:00,
2013-09-05 01:59:00,50.8,45.8,30.15,NNW,340,1.0,2.0,83,0.00,,CLR,0.00,VWS V14.01,2013-09-05 05:59:00,
2013-09-05 02:04:00,50.6,46.0,30.14,North,349,2.0,2.0,84,0.00,,CLR,0.00,VWS V14.01,2013-09-05 06:04:00,
2013-09-05 02:09:00,50.6,46.0,30.15,North,357,1.0,1.0,84,0.00,,CLR,0.00,VWS V14.01,2013-09-05 06:09:00,
2013-09-05 02:14:00,50.4,45.8,30.15,North,2,1.0,1.0,84,0.00,,CLR,0.00,VWS V14.01,2013-09-05 06:14:00,
2013-09-05 02:19:00,50.4,46.1,30.15,North,2,2.0,2.0,85,0.00,,CLR,0.00,VWS V14.01,2013-09-05 06:19:00,
2013-09-05 02:24:00,50.3,46.0,30.15,North,2,1.0,1.0,85,0.00,,CLR,0.00,VWS V14.01,2013-09-05 06:24:00,
2013-09-05 02:29:00,50.1,45.8,30.15,North,7,1.0,1.0,85,0.00,,CLR,0.00,VWS V14.01,2013-09-05 06:29:00,
2013-09-05 02:34:00,50.0,46.0,30.15,NNE,30,1.0,2.0,86,0.00,,CLR,0.00,VWS V14.01,2013-09-05 06:34:00,
2013-09-05 02:39:00,49.8,45.5,30.15,North,7,1.0,1.0,85,0.00,,CLR,0.00,VWS V14.01,2013-09-05 06:39:00,
2013-09-05 02:44:00,49.6,45.6,30.15,NNE,30,0.0,0.0,86,0.00,,CLR,0.00,VWS V14.01,2013-09-05 06:44:00,
2013-09-05 02:49:00,49.3,44.7,30.16,NE,37,1.0,2.0,84,0.00,,CLR,0.00,VWS V14.01,2013-09-05 06:49:00,
2013-09-05 02:54:00,48.8,44.8,30.16,ENE,63,1.0,2.0,86,0.00,,CLR,0.00,VWS V14.01,2013-09-05 06:54:00,
2013-09-05 02:59:00,48.7,45.9,30.16,NE,45,3.0,3.0,90,0.00,,CLR,0.00,VWS V14.01,2013-09-05 06:59:00,
2013-09-05 03:04:00,49.0,46.2,30.16,NE,34,1.0,1.0,90,0.00,,CLR,0.00,VWS V14.01,2013-09-05 07:04:00,
2013-09-05 03:09:00,49.2,46.4,30.16,ENE,63,1.0,3.0,90,0.00,,CLR,0.00,VWS V14.01,2013-09-05 07:09:00,
2013-09-05 03:14:00,49.4,46.6,30.16,NE,34,2.0,2.0,90,0.00,,CLR,0.00,VWS V14.01,2013-09-05 07:14:00,
2013-09-05 03:19:00,49.6,46.5,30.16,NE,36,3.0,3.0,89,0.00,,CLR,0.00,VWS V14.01,2013-09-05 07:19:00,
2013-09-05 03:24:00,49.7,46.3,30.16,NE,56,1.0,2.0,88,0.00,,CLR,0.00,VWS V14.01,2013-09-05 07:24:00,
2013-09-05 03:29:00,49.6,46.5,30.16,NE,38,1.0,2.0,89,0.00,,CLR,0.00,VWS V14.01,2013-09-05 07:29:00,
2013-09-05 03:34:00,49.6,46.5,30.16,NNE,33,2.0,3.0,89,0.00,,CLR,0.00,VWS V14.01,2013-09-05 07:34:00,
2013-09-05 03:39:00,49.8,47.3,30.17,NNE,13,5.0,5.0,91,0.00,,CLR,0.00,VWS V14.01,2013-09-05 07:39:00,
2013-09-05 03:44:00,50.3,47.8,30.17,NE,51,2.0,3.0,91,0.00,,CLR,0.00,VWS V14.01,2013-09-05 07:44:00,
2013-09-05 03:49:00,50.9,48.1,30.17,NE,51,4.0,4.0,90,0.00,,CLR,0.00,VWS V14.01,2013-09-05 07:49:00,
2013-09-05 03:54:00,51.3,47.9,30.17,East,86,4.0,5.0,88,0.00,,CLR,0.00,VWS V14.01,2013-09-05 07:54:00,
2013-09-05 03:59:00,51.7,47.7,30.18,ENE,67,3.0,3.0,86,0.00,,CLR,0.00,VWS V14.01,2013-09-05 07:59:00,
2013-09-05 04:04:00,51.8,47.4,30.18,NE,53,2.0,3.0,85,0.00,,CLR,0.00,VWS V14.01,2013-09-05 08:04:00,
2013-09-05 04:09:00,51.8,47.1,30.18,ENE,64,3.0,4.0,84,0.00,,CLR,0.00,VWS V14.01,2013-09-05 08:09:00,
2013-09-05 04:14:00,51.8,47.1,30.18,ENE,59,3.0,4.0,84,0.00,,CLR,0.00,VWS V14.01,2013-09-05 08:14:00,
2013-09-05 04:19:00,51.7,46.7,30.19,NE,48,3.0,4.0,83,0.00,,CLR,0.00,VWS V14.01,2013-09-05 08:19:00,
2013-09-05 04:24:00,51.5,46.5,30.18,NE,52,2.0,3.0,83,0.00,,CLR,0.00,VWS V14.01,2013-09-05 08:24:00,
2013-09-05 04:29:00,51.3,46.0,30.18,ENE,73,4.0,5.0,82,0.00,,CLR,0.00,VWS V14.01,2013-09-05 08:29:00,
2013-09-05 04:34:00,51.1,45.5,30.19,ENE,65,3.0,3.0,81,0.00,,CLR,0.00,VWS V14.01,2013-09-05 08:34:00,
2013-09-05 04:40:00,50.8,45.2,30.18,ENE,70,4.0,4.0,81,0.00,,CLR,0.00,VWS V14.01,2013-09-05 08:40:00,
2013-09-05 04:45:00,50.5,44.9,30.18,NE,54,2.0,2.0,81,0.00,,CLR,0.00,VWS V14.01,2013-09-05 08:45:00,
2013-09-05 04:50:00,50.3,44.7,30.18,ENE,57,1.0,2.0,81,0.00,,CLR,0.00,VWS V14.01,2013-09-05 08:50:00,
2013-09-05 04:55:00,50.1,44.5,30.19,NE,48,2.0,2.0,81,0.00,,CLR,0.00,VWS V14.01,2013-09-05 08:55:00,
2013-09-05 05:00:00,49.9,44.3,30.19,ENE,74,2.0,3.0,81,0.00,,CLR,0.00,VWS V14.01,2013-09-05 09:00:00,
2013-09-05 05:05:00,49.7,44.1,30.19,ENE,60,3.0,3.0,81,0.00,,CLR,0.00,VWS V14.01,2013-09-05 09:05:00,
2013-09-05 05:10:00,49.6,44.3,30.19,NE,55,2.0,2.0,82,0.00,,CLR,0.00,VWS V14.01,2013-09-05 09:10:00,
2013-09-05 05:15:00,49.4,44.1,30.19,ENE,65,2.0,2.0,82,0.00,,CLR,0.00,VWS V14.01,2013-09-05 09:15:00,
2013-09-05 05:20:00,49.2,44.0,30.19,ENE,69,2.0,2.0,82,0.00,,CLR,0.00,VWS V14.01,2013-09-05 09:20:00,
2013-09-05 05:25:00,49.1,43.8,30.20,ENE,70,2.0,2.0,82,0.00,,CLR,0.00,VWS V14.01,2013-09-05 09:25:00,
2013-09-05 05:30:00,49.0,43.8,30.20,ENE,71,2.0,2.0,82,0.00,,CLR,0.00,VWS V14.01,2013-09-05 09:30:00,
2013-09-05 05:35:00,48.8,43.6,30.20,ENE,76,4.0,4.0,82,0.00,,CLR,0.00,VWS V14.01,2013-09-05 09:35:00,
2013-09-05 05:40:00,48.7,43.5,30.21,ENE,59,2.0,2.0,82,0.00,,CLR,0.00,VWS V14.01,2013-09-05 09:40:00,
2013-09-05 05:45:00,48.6,43.4,30.21,ENE,67,2.0,2.0,82,0.00,,CLR,0.00,VWS V14.01,2013-09-05 09:45:00,
2013-09-05 05:50:00,48.4,43.5,30.21,ENE,67,2.0,2.0,83,0.00,,CLR,0.00,VWS V14.01,2013-09-05 09:50:00,
2013-09-05 05:55:00,48.0,43.7,30.21,ENE,67,1.0,2.0,85,0.00,,CLR,0.00,VWS V14.01,2013-09-05 09:55:00,
2013-09-05 06:00:00,47.5,42.9,30.21,ENE,71,2.0,2.0,84,0.00,,CLR,0.00,VWS V14.01,2013-09-05 10:00:00,
2013-09-05 06:05:00,46.9,42.6,30.22,East,97,2.0,2.0,85,0.00,,CLR,0.00,VWS V14.01,2013-09-05 10:05:00,
2013-09-05 06:10:00,46.5,42.8,30.22,East,97,2.0,2.0,87,0.00,,CLR,0.00,VWS V14.01,2013-09-05 10:10:00,
2013-09-05 06:15:00,46.2,42.0,30.22,East,97,0.0,1.0,85,0.00,,CLR,0.00,VWS V14.01,2013-09-05 10:15:00,
2013-09-05 06:20:00,45.8,41.9,30.22,East,97,0.0,1.0,86,0.00,,CLR,0.00,VWS V14.01,2013-09-05 10:20:00,
2013-09-05 06:25:00,45.4,41.5,30.23,East,97,1.0,1.0,86,0.00,,CLR,0.00,VWS V14.01,2013-09-05 10:25:00,
2013-09-05 06:30:00,44.9,41.3,30.23,East,97,0.0,1.0,87,0.00,,CLR,0.00,VWS V14.01,2013-09-05 10:30:00,
2013-09-05 06:35:00,44.5,40.9,30.23,East,97,0.0,1.0,87,0.00,,CLR,0.00,VWS V14.01,2013-09-05 10:35:00,
2013-09-05 06:40:00,44.0,40.4,30.23,East,97,0.0,0.0,87,0.00,,CLR,0.00,VWS V14.01,2013-09-05 10:40:00,
2013-09-05 06:45:00,43.8,40.5,30.24,East,97,0.0,0.0,88,0.00,,CLR,0.00,VWS V14.01,2013-09-05 10:45:00,
2013-09-05 06:50:00,43.5,40.2,30.24,East,97,1.0,1.0,88,0.00,,CLR,0.00,VWS V14.01,2013-09-05 10:50:00,
2013-09-05 06:55:00,43.1,39.8,30.24,East,97,0.0,0.0,88,0.00,,CLR,0.00,VWS V14.01,2013-09-05 10:55:00,
2013-09-05 07:00:00,42.6,39.3,30.24,East,97,0.0,1.0,88,0.00,,CLR,0.00,VWS V14.01,2013-09-05 11:00:00,
2013-09-05 07:05:00,42.4,39.4,30.25,East,97,1.0,1.0,89,0.00,,CLR,0.00,VWS V14.01,2013-09-05 11:05:00,
2013-09-05 07:10:00,42.1,39.4,30.25,East,97,0.0,1.0,90,0.00,,CLR,0.00,VWS V14.01,2013-09-05 11:10:00,
2013-09-05 07:15:00,41.8,39.1,30.25,East,97,0.0,0.0,90,0.00,,CLR,0.00,VWS V14.01,2013-09-05 11:15:00,
2013-09-05 07:20:00,41.6,38.9,30.25,East,97,0.0,1.0,90,0.00,,CLR,0.00,VWS V14.01,2013-09-05 11:20:00,
2013-09-05 07:25:00,41.5,39.1,30.25,East,97,1.0,1.0,91,0.00,,CLR,0.00,VWS V14.01,2013-09-05 11:25:00,
2013-09-05 07:30:00,41.4,39.0,30.25,East,97,0.0,0.0,91,0.00,,CLR,0.00,VWS V14.01,2013-09-05 11:30:00,
2013-09-05 07:35:00,41.3,39.2,30.26,East,97,0.0,0.0,92,0.00,,CLR,0.00,VWS V14.01,2013-09-05 11:35:00,
2013-09-05 07:40:00,41.5,39.6,30.26,East,97,0.0,1.0,93,0.00,,CLR,0.00,VWS V14.01,2013-09-05 11:40:00,
2013-09-05 07:45:00,41.7,39.8,30.27,East,97,2.0,2.0,93,0.00,,CLR,0.00,VWS V14.01,2013-09-05 11:45:00,
2013-09-05 07:50:00,41.9,40.0,30.27,East,97,0.0,1.0,93,0.00,,CLR,0.00,VWS V14.01,2013-09-05 11:50:00,
2013-09-05 07:55:00,42.2,40.6,30.27,East,97,1.0,1.0,94,0.00,,CLR,0.00,VWS V14.01,2013-09-05 11:55:00,
2013-09-05 08:00:00,42.8,41.2,30.28,East,95,0.0,0.0,94,0.00,,CLR,0.00,VWS V14.01,2013-09-05 12:00:00,
2013-09-05 08:05:00,43.6,42.0,30.28,East,95,2.0,2.0,94,0.00,,CLR,0.00,VWS V14.01,2013-09-05 12:05:00,
2013-09-05 08:10:00,44.2,42.6,30.28,East,95,0.0,1.0,94,0.00,,CLR,0.00,VWS V14.01,2013-09-05 12:10:00,
2013-09-05 08:15:00,44.6,43.0,30.28,East,95,1.0,1.0,94,0.00,,CLR,0.00,VWS V14.01,2013-09-05 12:15:00,
2013-09-05 08:20:00,45.2,43.6,30.28,East,95,0.0,0.0,94,0.00,,CLR,0.00,VWS V14.01,2013-09-05 12:20:00,
2013-09-05 08:25:00,45.7,44.1,30.28,East,95,1.0,2.0,94,0.00,,CLR,0.00,VWS V14.01,2013-09-05 12:25:00,
2013-09-05 08:30:00,46.3,44.4,30.28,East,95,0.0,0.0,93,0.00,,CLR,0.00,VWS V14.01,2013-09-05 12:30:00,
2013-09-05 08:35:00,47.1,45.2,30.28,East,95,0.0,0.0,93,0.00,,CLR,0.00,VWS V14.01,2013-09-05 12:35:00,
2013-09-05 08:40:00,47.7,45.5,30.28,East,95,0.0,1.0,92,0.00,,CLR,0.00,VWS V14.01,2013-09-05 12:40:00,
2013-09-05 08:45:00,48.2,45.7,30.29,East,95,0.0,0.0,91,0.00,,CLR,0.00,VWS V14.01,2013-09-05 12:45:00,
2013-09-05 08:50:00,48.7,45.9,30.29,East,95,2.0,2.0,90,0.00,,CLR,0.00,VWS V14.01,2013-09-05 12:50:00,
2013-09-05 08:55:00,49.4,46.3,30.29,East,95,0.0,1.0,89,0.00,,CLR,0.00,VWS V14.01,2013-09-05 12:55:00,
2013-09-05 09:00:00,50.3,46.9,30.29,ESE,122,1.0,1.0,88,0.00,,CLR,0.00,VWS V14.01,2013-09-05 13:00:00,
2013-09-05 09:05:00,51.0,46.3,30.28,ESE,122,1.0,1.0,84,0.00,,CLR,0.00,VWS V14.01,2013-09-05 13:05:00,
2013-09-05 09:10:00,52.2,47.2,30.28,SE,134,2.0,2.0,83,0.00,,CLR,0.00,VWS V14.01,2013-09-05 13:10:00,
2013-09-05 09:15:00,53.1,45.4,30.28,ENE,61,0.0,1.0,75,0.00,,CLR,0.00,VWS V14.01,2013-09-05 13:15:00,
2013-09-05 09:20:00,54.0,46.3,30.28,SSE,153,1.0,2.0,75,0.00,,CLR,0.00,VWS V14.01,2013-09-05 13:20:00,
2013-09-05 09:25:00,54.7,44.7,30.28,East,94,3.0,4.0,69,0.00,,CLR,0.00,VWS V14.01,2013-09-05 13:25:00,
2013-09-05 09:30:00,55.0,44.3,30.28,SE,128,2.0,2.0,67,0.00,,CLR,0.00,VWS V14.01,2013-09-05 13:30:00,
2013-09-05 09:35:00,55.4,43.8,30.28,ENE,67,2.0,2.0,65,0.00,,CLR,0.00,VWS V14.01,2013-09-05 13:35:00,
2013-09-05 09:40:00,55.7,43.3,30.29,East,80,3.0,3.0,63,0.00,,CLR,0.00,VWS V14.01,2013-09-05 13:40:00,
2013-09-05 09:45:00,55.8,42.1,30.29,ESE,110,3.0,6.0,60,0.00,,CLR,0.00,VWS V14.01,2013-09-05 13:45:00,
2013-09-05 09:50:00,55.9,41.8,30.29,ENE,73,1.0,2.0,59,0.00,,CLR,0.00,VWS V14.01,2013-09-05 13:50:00,
2013-09-05 09:56:00,55.9,41.3,30.29,ENE,63,8.0,8.0,58,0.00,,CLR,0.00,VWS V14.01,2013-09-05 13:56:00,
2013-09-05 10:01:00,56.0,41.5,30.29,WNW,294,1.0,2.0,58,0.00,,CLR,0.00,VWS V14.01,2013-09-05 14:01:00,
2013-09-05 10:06:00,56.2,42.1,30.29,NNE,31,5.0,7.0,59,0.00,,CLR,0.00,VWS V14.01,2013-09-05 14:06:00,
2013-09-05 10:11:00,56.5,43.2,30.30,ENE,66,5.0,5.0,61,0.00,,CLR,0.00,VWS V14.01,2013-09-05 14:11:00,
2013-09-05 10:16:00,56.6,42.9,30.30,ENE,58,0.0,1.0,60,0.00,,CLR,0.00,VWS V14.01,2013-09-05 14:16:00,
2013-09-05 10:21:00,56.8,42.2,30.30,ENE,73,2.0,3.0,58,0.00,,CLR,0.00,VWS V14.01,2013-09-05 14:21:00,
2013-09-05 10:26:00,57.1,42.0,30.30,South,180,2.0,2.0,57,0.00,,CLR,0.00,VWS V14.01,2013-09-05 14:26:00,
2013-09-05 10:31:00,57.4,42.3,30.30,NNW,346,0.0,1.0,57,0.00,,CLR,0.00,VWS V14.01,2013-09-05 14:31:00,
2013-09-05 10:36:00,58.0,42.9,30.30,ESE,121,1.0,2.0,57,0.00,,CLR,0.00,VWS V14.01,2013-09-05 14:36:00,
2013-09-05 10:41:00,58.5,42.9,30.30,NW,305,1.0,3.0,56,0.00,,CLR,0.00,VWS V14.01,2013-09-05 14:41:00,
2013-09-05 10:46:00,58.3,42.7,30.30,North,350,3.0,5.0,56,0.00,,CLR,0.00,VWS V14.01,2013-09-05 14:46:00,
2013-09-05 10:51:00,58.3,41.8,30.30,NE,37,0.0,1.0,54,0.00,,CLR,0.00,VWS V14.01,2013-09-05 14:51:00,
2013-09-05 10:56:00,58.4,42.8,30.30,NNE,24,4.0,4.0,56,0.00,,CLR,0.00,VWS V14.01,2013-09-05 14:56:00,
2013-09-05 11:01:00,58.5,42.4,30.30,NNW,334,5.0,6.0,55,0.00,,CLR,0.00,VWS V14.01,2013-09-05 15:01:00,
2013-09-05 11:06:00,58.5,42.9,30.30,NW,315,1.0,2.0,56,0.00,,CLR,0.00,VWS V14.01,2013-09-05 15:06:00,
2013-09-05 11:11:00,58.7,42.6,30.30,ESE,115,7.0,7.0,55,0.00,,CLR,0.00,VWS V14.01,2013-09-05 15:11:00,
2013-09-05 11:16:00,58.7,43.5,30.30,NNE,12,4.0,5.0,57,0.00,,CLR,0.00,VWS V14.01,2013-09-05 15:16:00,
2013-09-05 11:21:00,58.7,43.1,30.30,East,85,0.0,1.0,56,0.00,,CLR,0.00,VWS V14.01,2013-09-05 15:21:00,
2013-09-05 11:26:00,58.7,43.5,30.30,NNW,327,4.0,8.0,57,0.00,,CLR,0.00,VWS V14.01,2013-09-05 15:26:00,
2013-09-05 11:31:00,59.0,43.3,30.30,NNW,338,5.0,5.0,56,0.00,,CLR,0.00,VWS V14.01,2013-09-05 15:31:00,
2013-09-05 11:36:00,58.8,42.7,30.30,NNW,327,5.0,5.0,55,0.00,,CLR,0.00,VWS V14.01,2013-09-05 15:36:00,
2013-09-05 11:41:00,58.7,41.6,30.30,North,357,8.0,9.0,53,0.00,,CLR,0.00,VWS V14.01,2013-09-05 15:41:00,
2013-09-05 11:46:00,58.7,42.1,30.30,NNW,343,2.0,3.0,54,0.00,,CLR,0.00,VWS V14.01,2013-09-05 15:46:00,
2013-09-05 11:52:00,59.0,42.4,30.30,NNW,341,3.0,4.0,54,0.00,,CLR,0.00,VWS V14.01,2013-09-05 15:52:00,
2013-09-05 11:57:00,59.2,42.1,30.30,NNW,329,8.0,11.0,53,0.00,,CLR,0.00,VWS V14.01,2013-09-05 15:57:00,
2013-09-05 12:02:00,59.2,42.1,30.30,NNW,328,8.0,8.0,53,0.00,,CLR,0.00,VWS V14.01,2013-09-05 16:02:00,
2013-09-05 12:07:00,59.2,41.1,30.30,North,2,8.0,8.0,51,0.00,,CLR,0.00,VWS V14.01,2013-09-05 16:07:00,
2013-09-05 12:12:00,59.1,41.0,30.30,NNW,342,5.0,8.0,51,0.00,,CLR,0.00,VWS V14.01,2013-09-05 16:12:00,
2013-09-05 12:17:00,59.1,42.0,30.30,NNW,336,5.0,6.0,53,0.00,,CLR,0.00,VWS V14.01,2013-09-05 16:17:00,
2013-09-05 12:22:00,59.0,41.4,30.30,WNW,282,6.0,7.0,52,0.00,,CLR,0.00,VWS V14.01,2013-09-05 16:22:00,
2013-09-05 12:27:00,59.0,41.9,30.30,NW,306,9.0,9.0,53,0.00,,CLR,0.00,VWS V14.01,2013-09-05 16:27:00,
2013-09-05 12:32:00,58.8,41.7,30.30,WNW,298,11.0,11.0,53,0.00,,CLR,0.00,VWS V14.01,2013-09-05 16:32:00,
2013-09-05 12:37:00,58.8,41.7,30.31,WNW,293,8.0,8.0,53,0.00,,CLR,0.00,VWS V14.01,2013-09-05 16:37:00,
2013-09-05 12:42:00,58.9,41.8,30.31,NW,308,3.0,3.0,53,0.00,,CLR,0.00,VWS V14.01,2013-09-05 16:42:00,
2013-09-05 12:47:00,58.9,42.3,30.30,NW,304,2.0,3.0,54,0.00,,CLR,0.00,VWS V14.01,2013-09-05 16:47:00,
2013-09-05 12:52:00,59.1,43.4,30.31,NNW,348,2.0,3.0,56,0.00,,CLR,0.00,VWS V14.01,2013-09-05 16:52:00,
2013-09-05 12:57:00,59.3,41.7,30.31,NNW,335,5.0,6.0,52,0.00,,CLR,0.00,VWS V14.01,2013-09-05 16:57:00,
2013-09-05 13:02:00,59.3,42.2,30.31,NW,306,7.0,8.0,53,0.00,,CLR,0.00,VWS V14.01,2013-09-05 17:02:00,
2013-09-05 13:07:00,59.1,42.5,30.31,NNE,29,5.0,8.0,54,0.00,,CLR,0.00,VWS V14.01,2013-09-05 17:07:00,
2013-09-05 13:12:00,59.2,43.1,30.30,North,7,3.0,6.0,55,0.00,,CLR,0.00,VWS V14.01,2013-09-05 17:12:00,
2013-09-05 13:17:00,59.4,43.2,30.30,NNW,341,5.0,6.0,55,0.00,,CLR,0.00,VWS V14.01,2013-09-05 17:17:00,
2013-09-05 13:22:00,59.5,42.9,30.30,NNE,16,4.0,5.0,54,0.00,,CLR,0.00,VWS V14.01,2013-09-05 17:22:00,
2013-09-05 13:27:00,59.6,43.0,30.29,NW,305,3.0,3.0,54,0.00,,CLR,0.00,VWS V14.01,2013-09-05 17:27:00,
2013-09-05 13:32:00,60.2,44.0,30.29,WNW,290,8.0,8.0,55,0.00,,CLR,0.00,VWS V14.01,2013-09-05 17:32:00,
2013-09-05 13:37:00,60.0,42.3,30.29,NNW,340,6.0,10.0,52,0.00,,CLR,0.00,VWS V14.01,2013-09-05 17:37:00,
2013-09-05 13:42:00,59.9,42.7,30.29,NE,41,4.0,5.0,53,0.00,,CLR,0.00,VWS V14.01,2013-09-05 17:42:00,
2013-09-05 13:47:00,60.0,42.8,30.29,WNW,302,4.0,7.0,53,0.00,,CLR,0.00,VWS V14.01,2013-09-05 17:47:00,
2013-09-05 13:52:00,60.0,43.3,30.29,ENE,66,3.0,4.0,54,0.00,,CLR,0.00,VWS V14.01,2013-09-05 17:52:00,
2013-09-05 13:57:00,60.1,42.9,30.29,ENE,59,1.0,2.0,53,0.00,,CLR,0.00,VWS V14.01,2013-09-05 17:57:00,
2013-09-05 14:02:00,60.2,43.5,30.29,NNW,329,3.0,4.0,54,0.00,,CLR,0.00,VWS V14.01,2013-09-05 18:02:00,
2013-09-05 14:07:00,60.2,43.0,30.29,West,265,7.0,9.0,53,0.00,,CLR,0.00,VWS V14.01,2013-09-05 18:07:00,
2013-09-05 14:12:00,60.0,42.8,30.28,North,353,3.0,4.0,53,0.00,,CLR,0.00,VWS V14.01,2013-09-05 18:12:00,
2013-09-05 14:17:00,60.1,42.9,30.28,North,349,2.0,4.0,53,0.00,,CLR,0.00,VWS V14.01,2013-09-05 18:17:00,
2013-09-05 14:22:00,60.5,44.7,30.28,North,357,3.0,3.0,56,0.00,,CLR,0.00,VWS V14.01,2013-09-05 18:22:00,
2013-09-05 14:27:00,60.8,43.1,30.28,NNW,329,3.0,4.0,52,0.00,,CLR,0.00,VWS V14.01,2013-09-05 18:27:00,
2013-09-05 14:32:00,61.0,43.3,30.28,NW,317,3.0,3.0,52,0.00,,CLR,0.00,VWS V14.01,2013-09-05 18:32:00,
2013-09-05 14:37:00,61.2,44.0,30.28,West,259,4.0,5.0,53,0.00,,CLR,0.00,VWS V14.01,2013-09-05 18:37:00,
2013-09-05 14:42:00,61.2,44.0,30.28,NNW,333,6.0,9.0,53,0.00,,CLR,0.00,VWS V14.01,2013-09-05 18:42:00,
2013-09-05 14:47:00,61.0,43.3,30.27,WNW,292,7.0,7.0,52,0.00,,CLR,0.00,VWS V14.01,2013-09-05 18:47:00,
2013-09-05 14:52:00,61.2,44.0,30.27,WNW,282,6.0,7.0,53,0.00,,CLR,0.00,VWS V14.01,2013-09-05 18:52:00,
2013-09-05 14:57:00,61.5,45.2,30.27,NNW,335,2.0,3.0,55,0.00,,CLR,0.00,VWS V14.01,2013-09-05 18:57:00,
2013-09-05 15:02:00,61.7,44.9,30.27,West,266,3.0,3.0,54,0.00,,CLR,0.00,VWS V14.01,2013-09-05 19:02:00,
2013-09-05 15:07:00,61.4,44.6,30.27,NNW,332,2.0,4.0,54,0.00,,CLR,0.00,VWS V14.01,2013-09-05 19:07:00,
2013-09-05 15:12:00,61.4,45.6,30.26,NNW,330,5.0,5.0,56,0.00,,CLR,0.00,VWS V14.01,2013-09-05 19:12:00,
2013-09-05 15:17:00,61.5,44.7,30.26,WNW,288,2.0,4.0,54,0.00,,CLR,0.00,VWS V14.01,2013-09-05 19:17:00,
2013-09-05 15:22:00,61.7,44.9,30.27,NW,304,7.0,11.0,54,0.00,,CLR,0.00,VWS V14.01,2013-09-05 19:22:00,
2013-09-05 15:27:00,61.8,45.0,30.27,WSW,238,9.0,11.0,54,0.00,,CLR,0.00,VWS V14.01,2013-09-05 19:27:00,
2013-09-05 15:32:00,61.7,44.9,30.26,NW,325,3.0,3.0,54,0.00,,CLR,0.00,VWS V14.01,2013-09-05 19:32:00,
2013-09-05 15:37:00,61.6,44.3,30.26,WSW,248,8.0,8.0,53,0.00,,CLR,0.00,VWS V14.01,2013-09-05 19:37:00,
2013-09-05 15:42:00,61.4,44.1,30.26,West,261,4.0,4.0,53,0.00,,CLR,0.00,VWS V14.01,2013-09-05 19:42:00,
2013-09-05 15:47:00,62.0,45.2,30.26,West,279,2.0,4.0,54,0.00,,CLR,0.00,VWS V14.01,2013-09-05 19:47:00,
2013-09-05 15:52:00,62.4,45.5,30.26,SW,221,3.0,5.0,54,0.00,,CLR,0.00,VWS V14.01,2013-09-05 19:52:00,
2013-09-05 15:57:00,62.4,45.1,30.26,North,2,2.0,6.0,53,0.00,,CLR,0.00,VWS V14.01,2013-09-05 19:57:00,
2013-09-05 16:02:00,62.3,44.0,30.26,NNW,340,4.0,9.0,51,0.00,,CLR,0.00,VWS V14.01,2013-09-05 20:02:00,
2013-09-05 16:07:00,62.2,44.9,30.26,NNW,338,5.0,8.0,53,0.00,,CLR,0.00,VWS V14.01,2013-09-05 20:07:00,
2013-09-05 16:12:00,62.0,44.2,30.26,West,262,9.0,9.0,52,0.00,,CLR,0.00,VWS V14.01,2013-09-05 20:12:00,
2013-09-05 16:17:00,62.1,45.3,30.26,WNW,301,4.0,4.0,54,0.00,,CLR,0.00,VWS V14.01,2013-09-05 20:17:00,
2013-09-05 16:22:00,62.4,45.5,30.26,WSW,250,4.0,4.0,54,0.00,,CLR,0.00,VWS V14.01,2013-09-05 20:22:00,
2013-09-05 16:27:00,62.7,44.8,30.26,NNE,20,2.0,3.0,52,0.00,,CLR,0.00,VWS V14.01,2013-09-05 20:27:00,
2013-09-05 16:32:00,62.8,44.9,30.25,WNW,287,4.0,4.0,52,0.00,,CLR,0.00,VWS V14.01,2013-09-05 20:32:00,
2013-09-05 16:37:00,62.8,44.4,30.25,West,272,2.0,3.0,51,0.00,,CLR,0.00,VWS V14.01,2013-09-05 20:37:00,
2013-09-05 16:42:00,62.9,45.0,30.25,North,7,6.0,6.0,52,0.00,,CLR,0.00,VWS V14.01,2013-09-05 20:42:00,
2013-09-05 16:47:00,63.0,44.6,30.25,NW,314,3.0,5.0,51,0.00,,CLR,0.00,VWS V14.01,2013-09-05 20:47:00,
2013-09-05 16:52:00,62.8,43.9,30.25,WNW,289,3.0,3.0,50,0.00,,CLR,0.00,VWS V14.01,2013-09-05 20:52:00,
2013-09-05 16:57:00,62.7,44.8,30.25,WNW,300,2.0,3.0,52,0.00,,CLR,0.00,VWS V14.01,2013-09-05 20:57:00,
2013-09-05 17:02:00,62.8,44.9,30.25,WSW,245,3.0,6.0,52,0.00,,CLR,0.00,VWS V14.01,2013-09-05 21:02:00,
2013-09-05 17:07:00,63.0,45.1,30.25,WNW,284,3.0,3.0,52,0.00,,CLR,0.00,VWS V14.01,2013-09-05 21:07:00,
2013-09-05 17:12:00,63.1,45.2,30.25,NNW,331,4.0,4.0,52,0.00,,CLR,0.00,VWS V14.01,2013-09-05 21:12:00,
2013-09-05 17:17:00,63.1,44.7,30.25,West,263,4.0,6.0,51,0.00,,CLR,0.00,VWS V14.01,2013-09-05 21:17:00,
2013-09-05 17:22:00,63.0,45.1,30.25,SSW,197,5.0,5.0,52,0.00,,CLR,0.00,VWS V14.01,2013-09-05 21:22:00,
2013-09-05 17:27:00,63.0,45.1,30.25,NW,324,4.0,5.0,52,0.00,,CLR,0.00,VWS V14.01,2013-09-05 21:27:00,
2013-09-05 17:32:00,63.1,45.2,30.25,NNW,340,1.0,2.0,52,0.00,,CLR,0.00,VWS V14.01,2013-09-05 21:32:00,
2013-09-05 17:37:00,63.5,45.1,30.25,WSW,256,7.0,8.0,51,0.00,,CLR,0.00,VWS V14.01,2013-09-05 21:37:00,
2013-09-05 17:42:00,63.4,44.5,30.25,West,277,4.0,6.0,50,0.00,,CLR,0.00,VWS V14.01,2013-09-05 21:42:00,
2013-09-05 17:47:00,63.3,44.4,30.25,WSW,239,2.0,2.0,50,0.00,,CLR,0.00,VWS V14.01,2013-09-05 21:47:00,
2013-09-05 17:53:00,63.4,45.0,30.25,NW,320,1.0,1.0,51,0.00,,CLR,0.00,VWS V14.01,2013-09-05 21:53:00,
2013-09-05 17:58:00,63.5,44.5,30.25,West,280,6.0,6.0,50,0.00,,CLR,0.00,VWS V14.01,2013-09-05 21:58:00,
2013-09-05 18:03:00,63.4,43.9,30.24,WNW,286,2.0,4.0,49,0.00,,CLR,0.00,VWS V14.01,2013-09-05 22:03:00,
2013-09-05 18:07:00,63.2,43.7,30.24,West,263,1.0,2.0,49,0.00,,CLR,0.00,VWS V14.01,2013-09-05 22:07:00,
2013-09-05 18:12:00,63.2,44.3,30.24,NW,304,1.0,1.0,50,0.00,,CLR,0.00,VWS V14.01,2013-09-05 22:12:00,
2013-09-05 18:17:00,63.3,45.4,30.24,WNW,292,1.0,1.0,52,0.00,,CLR,0.00,VWS V14.01,2013-09-05 22:17:00,
2013-09-05 18:22:00,63.6,45.7,30.24,West,281,2.0,3.0,52,0.00,,CLR,0.00,VWS V14.01,2013-09-05 22:22:00,
2013-09-05 18:27:00,63.6,45.2,30.24,North,357,4.0,4.0,51,0.00,,CLR,0.00,VWS V14.01,2013-09-05 22:27:00,
2013-09-05 18:32:00,63.6,45.2,30.24,NNW,347,2.0,2.0,51,0.00,,CLR,0.00,VWS V14.01,2013-09-05 22:32:00,
2013-09-05 18:37:00,63.6,45.2,30.24,NNE,18,2.0,3.0,51,0.00,,CLR,0.00,VWS V14.01,2013-09-05 22:37:00,
2013-09-05 18:43:00,63.7,46.8,30.24,WNW,294,1.0,1.0,54,0.00,,CLR,0.00,VWS V14.01,2013-09-05 22:43:00,
2013-09-05 18:48:00,63.8,46.8,30.24,West,279,2.0,2.0,54,0.00,,CLR,0.00,VWS V14.01,2013-09-05 22:48:00,
2013-09-05 18:53:00,63.8,46.4,30.24,WNW,284,2.0,2.0,53,0.00,,CLR,0.00,VWS V14.01,2013-09-05 22:53:00,
2013-09-05 18:58:00,63.5,46.6,30.24,WSW,241,1.0,2.0,54,0.00,,CLR,0.00,VWS V14.01,2013-09-05 22:58:00,
2013-09-05 19:03:00,63.4,47.0,30.24,West,271,2.0,2.0,55,0.00,,CLR,0.00,VWS V14.01,2013-09-05 23:03:00,
2013-09-05 19:08:00,63.2,46.8,30.24,NW,320,1.0,1.0,55,0.00,,CLR,0.00,VWS V14.01,2013-09-05 23:08:00,
2013-09-05 19:13:00,63.0,46.6,30.23,SW,220,0.0,1.0,55,0.00,,CLR,0.00,VWS V14.01,2013-09-05 23:13:00,
2013-09-05 19:18:00,63.0,46.1,30.23,SW,220,0.0,1.0,54,0.00,,CLR,0.00,VWS V14.01,2013-09-05 23:18:00,
2013-09-05 19:23:00,62.9,46.5,30.23,WSW,247,0.0,0.0,55,0.00,,CLR,0.00,VWS V14.01,2013-09-05 23:23:00,
2013-09-05 19:28:00,62.8,47.8,30.23,WSW,247,1.0,1.0,58,0.00,,CLR,0.00,VWS V14.01,2013-09-05 23:28:00,
2013-09-05 19:33:00,62.6,48.1,30.23,WSW,247,0.0,0.0,59,0.00,,CLR,0.00,VWS V14.01,2013-09-05 23:33:00,
2013-09-05 19:38:00,62.2,48.2,30.23,WSW,247,0.0,0.0,60,0.00,,CLR,0.00,VWS V14.01,2013-09-05 23:38:00,
2013-09-05 19:43:00,61.8,49.1,30.23,WSW,247,1.0,1.0,63,0.00,,CLR,0.00,VWS V14.01,2013-09-05 23:43:00,
2013-09-05 19:48:00,60.8,47.7,30.23,SSW,212,1.0,2.0,62,0.00,,CLR,0.00,VWS V14.01,2013-09-05 23:48:00,
2013-09-05 19:53:00,60.3,48.5,30.23,SSW,212,0.0,0.0,65,0.00,,CLR,0.00,VWS V14.01,2013-09-05 23:53:00,
2013-09-05 19:58:00,59.9,48.9,30.23,SSW,212,0.0,0.0,67,0.00,,CLR,0.00,VWS V14.01,2013-09-05 23:58:00,
2013-09-05 20:03:00,59.3,48.0,30.22,SSW,212,0.0,0.0,66,0.00,,CLR,0.00,VWS V14.01,2013-09-06 00:03:00,
2013-09-05 20:08:00,58.6,48.1,30.22,SSW,212,0.0,0.0,68,0.00,,CLR,0.00,VWS V14.01,2013-09-06 00:08:00,
2013-09-05 20:13:00,58.0,47.9,30.22,SSW,212,0.0,0.0,69,0.00,,CLR,0.00,VWS V14.01,2013-09-06 00:13:00,
2013-09-05 20:18:00,57.6,47.9,30.22,SSW,212,0.0,0.0,70,0.00,,CLR,0.00,VWS V14.01,2013-09-06 00:18:00,
2013-09-05 20:23:00,57.1,47.4,30.23,SSW,212,0.0,1.0,70,0.00,,CLR,0.00,VWS V14.01,2013-09-06 00:23:00,
2013-09-05 20:28:00,56.4,47.1,30.23,SSW,212,0.0,0.0,71,0.00,,CLR,0.00,VWS V14.01,2013-09-06 00:28:00,
2013-09-05 20:33:00,55.6,46.7,30.23,SSW,212,1.0,1.0,72,0.00,,CLR,0.00,VWS V14.01,2013-09-06 00:33:00,
2013-09-05 20:38:00,54.6,47.2,30.23,SSW,212,2.0,2.0,76,0.00,,CLR,0.00,VWS V14.01,2013-09-06 00:38:00,
2013-09-05 20:43:00,53.8,46.8,30.23,SSW,212,1.0,1.0,77,0.00,,CLR,0.00,VWS V14.01,2013-09-06 00:43:00,
2013-09-05 20:48:00,53.2,46.9,30.24,SSW,212,1.0,1.0,79,0.00,,CLR,0.00,VWS V14.01,2013-09-06 00:48:00,
2013-09-05 20:53:00,52.4,46.8,30.24,SSW,212,1.0,1.0,81,0.00,,CLR,0.00,VWS V14.01,2013-09-06 00:53:00,
2013-09-05 20:58:00,51.9,46.9,30.24,SSW,212,1.0,1.0,83,0.00,,CLR,0.00,VWS V14.01,2013-09-06 00:58:00,
2013-09-05 21:03:00,51.5,46.8,30.24,SSW,212,1.0,1.0,84,0.00,,CLR,0.00,VWS V14.01,2013-09-06 01:03:00,
2013-09-05 21:08:00,51.2,46.5,30.24,SSW,212,1.0,1.0,84,0.00,,CLR,0.00,VWS V14.01,2013-09-06 01:08:00,
2013-09-05 21:13:00,50.9,46.6,30.24,SSW,212,1.0,1.0,85,0.00,,CLR,0.00,VWS V14.01,2013-09-06 01:13:00,
2013-09-05 21:18:00,50.4,46.1,30.24,SSW,212,0.0,1.0,85,0.00,,CLR,0.00,VWS V14.01,2013-09-06 01:18:00,
2013-09-05 21:23:00,50.2,46.2,30.24,SSW,212,1.0,1.0,86,0.00,,CLR,0.00,VWS V14.01,2013-09-06 01:23:00,
2013-09-05 21:28:00,49.9,45.9,30.24,SSW,212,0.0,1.0,86,0.00,,CLR,0.00,VWS V14.01,2013-09-06 01:28:00,
2013-09-05 21:33:00,49.8,45.8,30.24,SSW,212,1.0,1.0,86,0.00,,CLR,0.00,VWS V14.01,2013-09-06 01:33:00,
2013-09-05 21:38:00,49.5,45.2,30.24,SSW,212,0.0,1.0,85,0.00,,CLR,0.00,VWS V14.01,2013-09-06 01:38:00,
2013-09-05 21:43:00,49.2,45.2,30.24,SSW,212,0.0,0.0,86,0.00,,CLR,0.00,VWS V14.01,2013-09-06 01:43:00,
2013-09-05 21:48:00,49.0,45.0,30.23,SSW,212,1.0,1.0,86,0.00,,CLR,0.00,VWS V14.01,2013-09-06 01:48:00,
2013-09-05 21:53:00,48.7,45.0,30.23,SSW,212,0.0,0.0,87,0.00,,CLR,0.00,VWS V14.01,2013-09-06 01:53:00,
2013-09-05 21:58:00,48.4,44.7,30.23,SSW,212,0.0,0.0,87,0.00,,CLR,0.00,VWS V14.01,2013-09-06 01:58:00,
2013-09-05 22:03:00,48.2,44.5,30.23,SSW,212,1.0,1.0,87,0.00,,CLR,0.00,VWS V14.01,2013-09-06 02:03:00,
2013-09-05 22:08:00,48.0,44.0,30.23,SSW,212,0.0,0.0,86,0.00,,CLR,0.00,VWS V14.01,2013-09-06 02:08:00,
2013-09-05 22:13:00,47.8,43.8,30.23,SSW,212,0.0,0.0,86,0.00,,CLR,0.00,VWS V14.01,2013-09-06 02:13:00,
2013-09-05 22:18:00,47.6,43.6,30.23,SSW,212,0.0,1.0,86,0.00,,CLR,0.00,VWS V14.01,2013-09-06 02:18:00,
2013-09-05 22:23:00,47.4,44.0,30.22,SSW,212,1.0,1.0,88,0.00,,CLR,0.00,VWS V14.01,2013-09-06 02:23:00,
2013-09-05 22:28:00,47.2,44.1,30.22,SSW,212,0.0,0.0,89,0.00,,CLR,0.00,VWS V14.01,2013-09-06 02:28:00,
2013-09-05 22:33:00,46.9,43.5,30.22,SSW,212,1.0,1.0,88,0.00,,CLR,0.00,VWS V14.01,2013-09-06 02:33:00,
2013-09-05 22:38:00,46.7,43.6,30.22,SSW,212,0.0,1.0,89,0.00,,CLR,0.00,VWS V14.01,2013-09-06 02:38:00,
2013-09-05 22:43:00,46.5,43.7,30.22,SSW,212,1.0,2.0,90,0.00,,CLR,0.00,VWS V14.01,2013-09-06 02:43:00,
2013-09-05 22:48:00,46.5,44.3,30.23,SE,140,2.0,2.0,92,0.00,,CLR,0.00,VWS V14.01,2013-09-06 02:48:00,
2013-09-05 22:53:00,46.5,44.3,30.22,SE,128,2.0,2.0,92,0.00,,CLR,0.00,VWS V14.01,2013-09-06 02:53:00,
2013-09-05 22:58:00,46.5,44.6,30.22,ESE,122,2.0,2.0,93,0.00,,CLR,0.00,VWS V14.01,2013-09-06 02:58:00,
2013-09-05 23:03:00,46.4,44.5,30.22,ESE,122,1.0,2.0,93,0.00,,CLR,0.00,VWS V14.01,2013-09-06 03:03:00,
2013-09-05 23:08:00,46.5,44.6,30.22,East,94,2.0,2.0,93,0.00,,CLR,0.00,VWS V14.01,2013-09-06 03:08:00,
2013-09-05 23:13:00,46.5,44.6,30.22,ESE,112,1.0,1.0,93,0.00,,CLR,0.00,VWS V14.01,2013-09-06 03:13:00,
2013-09-05 23:18:00,46.5,44.6,30.22,ESE,112,0.0,1.0,93,0.00,,CLR,0.00,VWS V14.01,2013-09-06 03:18:00,
2013-09-05 23:23:00,46.5,44.6,30.22,ESE,112,1.0,1.0,93,0.00,,CLR,0.00,VWS V14.01,2013-09-06 03:23:00,
2013-09-05 23:28:00,46.4,44.5,30.21,ESE,112,1.0,1.0,93,0.00,,CLR,0.00,VWS V14.01,2013-09-06 03:28:00,
2013-09-05 23:33:00,46.3,44.1,30.22,ESE,112,0.0,0.0,92,0.00,,CLR,0.00,VWS V14.01,2013-09-06 03:33:00,
2013-09-05 23:38:00,46.1,44.2,30.22,ESE,112,1.0,1.0,93,0.00,,CLR,0.00,VWS V14.01,2013-09-06 03:38:00,
2013-09-05 23:43:00,46.1,44.2,30.21,ESE,112,1.0,1.0,93,0.00,,CLR,0.00,VWS V14.01,2013-09-06 03:43:00,
2013-09-05 23:48:00,46.1,44.2,30.21,ESE,112,1.0,1.0,93,0.00,,CLR,0.00,VWS V14.01,2013-09-06 03:48:00,
2013-09-05 23:53:00,46.1,44.2,30.22,ESE,112,1.0,1.0,93,0.00,,CLR,0.00,VWS V14.01,2013-09-06 03:53:00,
2013-09-05 23:58:00,46.1,44.2,30.21,ESE,112,0.0,1.0,93,0.00,,CLR,0.00,VWS V14.01,2013-09-06 03:58:00,